Location: Newark
(10.3333°N, 37.7167°E)
Time: 04:39:29
(UTC+00:00)

STARLINK-1114 - Pass Details

Date: 04 February 2020
Orbit: 534 x 536 km, 53.0° (Epoch: 19 February)

Event Time Altitude Azimuth Distance (km) Brightness Sun altitude
Rises 16:45:11 0° 329° (NNW) 2,640 7.3 -17.7°
Reaches altitude 10° 16:47:24 10° 333° (NNW) 1,751 6.3 -18.2°
Maximum altitude 16:51:20 65° 54° (NE) 574 3.4 -19.1°
Enters shadow 16:52:17 47° 114° (ESE) 697 3.7 -19.3°
